Location: 22
(39.7117°N, 89.5929°W)
Time: 19:18:27
(UTC-05:00)

Vanguard 3 - Pass Details

Date: 02 February 2023
Orbit: 508 x 3249 km, 33.4° (Epoch: 30 March)

Event Time Altitude Azimuth Distance (km) Brightness Sun altitude
Rises 02:22:40 0° 279° (W) 6,781 - -53.6°
Reaches altitude 10° 02:28:20 10° 268° (W) 6,009 - -52.7°
Maximum altitude 02:41:51 24° 224° (SW) 5,039 - -50.3°
Exits shadow 02:54:48 10° 179° (S) 5,722 11.3 -48.0°
Drops below altitude 10° 02:54:57 10° 178° (S) 5,737 11.3 -48.0°
Sets 03:00:18 0° 166° (SSE) 6,414 11.7 -47.0°
